CSA6404 LKPR-LGIR

Flight info

Callsign CSA6404
Flight time N/A
Altitude 33000
Route VOZ DCT NELPA DCT PISAM DCT SASAL DCT VEBAL DCT GUBOK DCT AKIKA DCT PINDO UL607 GIVIS T514 XAVIS
Aircraft A321/M-SDE3FGHIRWY/LB1

Departure

Time 2026-05-01 09:06
Airport Václav Havel Airport Prague (LKPR)

Arrival

Time N/A
Airport Heraklion International Nikos Kazantzakis Airport (LGIR)
Time Latitude Longitude Altitude Speed Heading
2026-05-01 08:50 50.10749 14.26075 1170 ft 0 kts 124°
2026-05-01 08:56 50.10738 14.26099 1171 ft 6 kts 124°
2026-05-01 08:56 50.10702 14.26132 1171 ft 7 kts 185°
2026-05-01 08:56 50.10636 14.26079 1171 ft 12 kts 212°
2026-05-01 08:57 50.10572 14.26016 1173 ft 10 kts 213°
2026-05-01 08:57 50.10523 14.25968 1173 ft 0 kts 208°
2026-05-01 08:57 50.10522 14.25967 1173 ft 0 kts 208°
2026-05-01 08:59 50.10509 14.25971 1173 ft 5 kts 167°
2026-05-01 09:00 50.10472 14.26036 1173 ft 12 kts 127°
2026-05-01 09:00 50.10467 14.26045 1175 ft 13 kts 128°
2026-05-01 09:00 50.10397 14.26190 1176 ft 21 kts 127°
2026-05-01 09:00 50.10292 14.26401 1177 ft 28 kts 124°
2026-05-01 09:01 50.10180 14.26634 1176 ft 26 kts 127°
2026-05-01 09:01 50.10084 14.26834 1187 ft 20 kts 126°
2026-05-01 09:01 50.10009 14.26990 1195 ft 19 kts 128°
2026-05-01 09:01 50.09924 14.27164 1200 ft 19 kts 127°
2026-05-01 09:02 50.09851 14.27314 1202 ft 16 kts 131°
2026-05-01 09:02 50.09784 14.27418 1205 ft 11 kts 136°
2026-05-01 09:02 50.09739 14.27487 1205 ft 8 kts 136°
2026-05-01 09:02 50.09690 14.27560 1206 ft 13 kts 136°
2026-05-01 09:03 50.09617 14.27674 1210 ft 17 kts 135°
2026-05-01 09:03 50.09540 14.27792 1212 ft 14 kts 134°
2026-05-01 09:03 50.09482 14.27882 1214 ft 10 kts 135°
2026-05-01 09:03 50.09440 14.27946 1215 ft 10 kts 135°
2026-05-01 09:04 50.09373 14.28047 1214 ft 15 kts 136°
2026-05-01 09:04 50.09303 14.28154 1214 ft 13 kts 135°
2026-05-01 09:04 50.09238 14.28254 1212 ft 13 kts 139°
2026-05-01 09:04 50.09154 14.28272 1211 ft 12 kts 207°
2026-05-01 09:05 50.09094 14.28192 1210 ft 11 kts 222°
2026-05-01 09:05 50.09089 14.28076 1208 ft 15 kts 302°
2026-05-01 09:05 50.09189 14.27870 1211 ft 40 kts 307°
2026-05-01 09:05 50.09496 14.27237 1206 ft 106 kts 307°
2026-05-01 09:06 50.10055 14.26083 1191 ft 159 kts 307°
2026-05-01 09:06 50.10779 14.24563 1506 ft 178 kts 308°
2026-05-01 09:06 50.11511 14.23001 2264 ft 180 kts 307°
2026-05-01 09:06 50.12255 14.21400 2878 ft 186 kts 307°
2026-05-01 09:07 50.13009 14.19761 3473 ft 185 kts 307°
2026-05-01 09:07 50.13808 14.18109 3709 ft 200 kts 309°
2026-05-01 09:07 50.14691 14.16325 3881 ft 217 kts 308°
2026-05-01 09:07 50.15666 14.14356 4039 ft 241 kts 309°
2026-05-01 09:08 50.16715 14.12218 4395 ft 259 kts 308°
2026-05-01 09:08 50.17822 14.09944 5045 ft 265 kts 308°
2026-05-01 09:08 50.18518 14.08320 5503 ft 269 kts 296°
2026-05-01 09:08 50.18693 14.04485 6336 ft 279 kts 250°
2026-05-01 09:09 50.17616 14.01962 6956 ft 285 kts 222°
2026-05-01 09:09 50.16025 14.00101 7508 ft 289 kts 210°
2026-05-01 09:09 50.14162 13.98978 8047 ft 289 kts 185°
2026-05-01 09:09 50.12833 13.98827 8427 ft 289 kts 176°
2026-05-01 09:10 50.10824 13.99067 9021 ft 290 kts 166°
2026-05-01 09:10 50.08881 13.99911 9618 ft 289 kts 153°
2026-05-01 09:10 50.07025 14.01141 10217 ft 291 kts 152°
2026-05-01 09:10 50.05155 14.02407 10669 ft 299 kts 152°
2026-05-01 09:11 50.03193 14.03762 10787 ft 317 kts 151°
2026-05-01 09:11 50.01131 14.05200 10917 ft 334 kts 152°
2026-05-01 09:11 49.98960 14.06720 11038 ft 351 kts 152°
2026-05-01 09:11 49.96679 14.08312 11166 ft 366 kts 152°
2026-05-01 09:12 49.94321 14.09953 11473 ft 375 kts 152°
2026-05-01 09:12 49.91925 14.11611 11942 ft 379 kts 152°
2026-05-01 09:12 49.89507 14.13279 12433 ft 382 kts 152°
2026-05-01 09:12 49.87152 14.15165 12889 ft 381 kts 143°
2026-05-01 09:13 49.85063 14.17659 13356 ft 378 kts 132°
2026-05-01 09:13 49.83314 14.20684 13808 ft 376 kts 122°
2026-05-01 09:13 49.81743 14.23947 14246 ft 379 kts 122°
2026-05-01 09:13 49.80157 14.27220 14639 ft 381 kts 123°
2026-05-01 09:14 49.78553 14.30506 15042 ft 383 kts 123°
2026-05-01 09:14 49.76961 14.33754 15425 ft 385 kts 123°
2026-05-01 09:14 49.75341 14.37060 15813 ft 387 kts 123°
2026-05-01 09:14 49.73709 14.40385 16188 ft 388 kts 123°
2026-05-01 09:15 49.72068 14.43723 16561 ft 390 kts 122°
2026-05-01 09:15 49.70423 14.47063 16907 ft 392 kts 123°
2026-05-01 09:15 49.68766 14.50418 17262 ft 394 kts 123°
2026-05-01 09:15 49.67102 14.53789 17605 ft 395 kts 122°
2026-05-01 09:16 49.65594 14.57327 17936 ft 394 kts 117°
2026-05-01 09:16 49.64132 14.60918 18274 ft 396 kts 117°
2026-05-01 09:16 49.62662 14.64517 18637 ft 398 kts 117°
2026-05-01 09:17 49.59697 14.71757 19260 ft 401 kts 117°
2026-05-01 09:17 49.58200 14.75404 19566 ft 403 kts 117°
2026-05-01 09:17 49.55012 14.82501 20181 ft 413 kts 128°
2026-05-01 09:18 49.52855 14.85495 20495 ft 422 kts 139°
2026-05-01 09:18 49.47438 14.89362 21088 ft 441 kts 162°
2026-05-01 09:19 49.41382 14.91312 21684 ft 447 kts 163°
2026-05-01 09:19 49.38334 14.92299 21990 ft 449 kts 163°
2026-05-01 09:19 49.35267 14.93298 22277 ft 451 kts 163°
2026-05-01 09:20 49.29192 14.95718 22825 ft 449 kts 153°
2026-05-01 09:20 49.23843 15.00422 23389 ft 442 kts 137°
2026-05-01 09:21 49.18861 15.06022 23953 ft 446 kts 138°
2026-05-01 09:21 49.16349 15.08816 24202 ft 448 kts 138°
2026-05-01 09:21 49.11318 15.14392 24672 ft 451 kts 138°
2026-05-01 09:22 49.06219 15.20040 25156 ft 454 kts 138°
2026-05-01 09:22 49.01079 15.25730 25612 ft 458 kts 138°
2026-05-01 09:23 48.98499 15.28583 25835 ft 459 kts 138°
2026-05-01 09:23 48.93306 15.34312 26257 ft 462 kts 138°
2026-05-01 09:24 48.87888 15.39711 26660 ft 473 kts 148°
2026-05-01 09:24 48.84889 15.41821 26847 ft 476 kts 150°
2026-05-01 09:24 48.78838 15.46013 27255 ft 477 kts 149°
2026-05-01 09:25 48.72844 15.50167 27760 ft 476 kts 149°
2026-05-01 09:25 48.66825 15.54350 28248 ft 475 kts 149°
2026-05-01 09:26 48.63819 15.56435 28481 ft 475 kts 149°
2026-05-01 09:26 48.57808 15.60589 28988 ft 474 kts 149°
2026-05-01 09:26 48.54804 15.62661 29229 ft 474 kts 149°
2026-05-01 09:27 48.48806 15.66794 29700 ft 473 kts 149°
2026-05-01 09:27 48.45812 15.68853 29924 ft 473 kts 149°
2026-05-01 09:27 48.42818 15.70910 30152 ft 473 kts 149°
2026-05-01 09:28 48.39823 15.72961 30366 ft 472 kts 149°
2026-05-01 09:28 48.36832 15.75007 30568 ft 472 kts 149°
2026-05-01 09:28 48.33840 15.77051 30761 ft 472 kts 149°
2026-05-01 09:28 48.30855 15.79089 30941 ft 471 kts 149°
2026-05-01 09:29 48.24925 15.83128 31315 ft 471 kts 149°
2026-05-01 09:29 48.21939 15.85154 31509 ft 470 kts 149°
2026-05-01 09:30 48.15983 15.89204 31901 ft 470 kts 149°
2026-05-01 09:30 48.13004 15.91224 32110 ft 469 kts 148°
2026-05-01 09:30 48.07053 15.95246 32477 ft 469 kts 148°
2026-05-01 09:31 48.04087 15.97248 32650 ft 468 kts 148°
2026-05-01 09:31 48.01112 15.99251 32817 ft 468 kts 148°
2026-05-01 09:31 47.95177 16.03242 33192 ft 467 kts 148°
2026-05-01 09:32 47.92218 16.05230 33371 ft 467 kts 148°
2026-05-01 09:32 47.83351 16.11175 33424 ft 467 kts 148°